[[{"header":{"parameterUnit":"m.s-1","parameterCategory":1,"la1":30.2991,"la2":30.254,"lo1":-89.0895,"lo2":-89.0444,"dy":0.0017,"dx":0.0017,"nx":28,"ny":28,"refTime":"2025-06-18T03:00:00:Z","depth":0,"parameterNumber":2,"parameterNumberName":"U-component_of_WINDS"},"data":[0,0,0,0,0,0,0,0,0,0,0,0,0,0,0,0,0,0,0,0,0,0,0,0,0,0,0,0,0,0,0,0,0,0,0,0,0,0,0,0,0,0,0,0,0,0,0,0,0,0,0,0,0,0,0,0,0,0,0.9646,0.9646,0,0.9614,0.9614,0.9613,0.9541,0.9539,0.9538,0.9536,0.9504,0.9504,0.9505,0,0,0,0,0,0,0,0,0,0,0,0,0,0.9645,0.9645,0.9646,0.9646,0.9646,0.9614,0.9614,0.9613,0.9541,0.9539,0.9537,0.9536,0.9504,0.9504,0.9505,0,0,0,0,0,0,0,0,0,0,0,0,0,0.9632,0.9645,0.9646,0.9606,0.9602,0.9614,0.9614,0.9613,0.9541,0.9539,0.9537,0.9535,0.9503,0.9504,0.9505,0.9554,0,0,0.9507,0.9508,0,0,0,0,0,0,0,0,0.9633,0.9632,0.9612,0.9609,0.9604,0.9579,0.9601,0.9593,0.9542,0.9564,0.9536,0.9534,0.9531,0.9529,0.9528,0.9553,0.9551,0.9507,0.9508,0.9508,0.9508,0,0,0,0,0,0,0,0.9634,0.9633,0.9633,0.9612,0.9607,0.9589,0.9585,0.9599,0.956,0.9562,0.9557,0.9554,0.9528,0.9527,0.9527,0.9551,0.9507,0.9508,0.9508,0.9509,0.9611,0.9613,0,0,0,0,0,0,0.9641,0.9635,0.9634,0.9633,0.9613,0.9591,0.9586,0.9589,0.956,0.9553,0.9556,0.9551,0.9527,0.9526,0.9525,0.9579,0.9508,0.9509,0.9509,0.9609,0.9612,0.9614,0,0,0,0,0,0,0.9641,0.9642,0.9636,0.9632,0.963,0.9593,0.9598,0.959,0.9589,0.9555,0.9548,0.9562,0.9525,0.9524,0.9547,0.9577,0.9509,0.951,0.9606,0.961,0.9613,0.9688,0,0,0,0,0,0,0.9641,0.9642,0.9661,0.9633,0.963,0.9659,0.9599,0.9591,0.9591,0.9583,0.9559,0.9553,0.9523,0.9546,0.9548,0.9576,0.951,0.9604,0.9608,0.9612,0.9683,0.9693,0.9703,0,0,0,0,0,0.9642,0.9684,0.9662,0.9663,0.9653,0.9661,0.9659,0.9624,0.9593,0.9611,0.9589,0.9554,0.9574,0.9549,0.955,0.958,0.9601,0.9607,0.9612,0.9678,0.9691,0.9702,0,0,0,0,0,0,0.9717,0.968,0.9655,0.969,0.9679,0.9648,0.967,0.9639,0.9637,0.963,0.9587,0.9582,0.961,0.9597,0.9571,0.9624,0.9582,0.9587,0.9632,0.9644,0.9654,0.9656,0.9511,0,0,0,0,0,0.9737,0.9747,0.9714,0.9747,0.9743,0.9708,0.971,0.9683,0.967,0.9665,0.9645,0.9634,0.9637,0.964,0.9641,0.9681,0.9673,0.9701,0.9711,0.972,0.9725,0.9742,0.9754,0.9631,0.9631,0.9631,0,0,0.978,0.9761,0.9769,0.9762,0.975,0.976,0.9704,0.9718,0.9724,0.9667,0.9687,0.9672,0.9656,0.9687,0.9699,0.9677,0.9757,0.9726,0.9733,0.9734,0.9749,0.976,0.9771,0.9634,0.9634,0.9633,0,0,0.9862,0.985,0.9875,0.9864,0.9847,0.9823,0.9829,0.9803,0.979,0.9809,0.9766,0.9773,0.978,0.977,0.9766,0.9842,0.9809,0.9844,0.9896,0.9914,0.9924,0.9932,0.9957,0.9967,0.9849,0.985,0.985,0,0.9917,0.9931,0.9892,0.9907,0.9904,0.9853,0.9877,0.9869,0.9853,0.9852,0.9827,0.9833,0.982,0.9846,0.9864,0.9864,0.9868,0.9846,0.9925,0.9933,0.994,0.9964,0.9974,0.9854,0.9853,0.9853,0.9852,0,0.9998,1.0008,1.003,1.0015,1.0015,1.0035,0.9999,1.0003,0.9977,0.9955,0.9974,0.9955,0.9951,0.9955,0.993,0.9978,0.9964,0.9933,0.9889,0.9957,0.9978,0.9987,0.986,0.9858,0.9857,0.9856,0,0,1.0127,1.0089,1.0098,1.0089,1.0066,1.0072,1.009,1.0085,1.0088,1.0079,1.0091,1.0098,1.0068,1.0064,1.0037,1.0052,1.0111,1.0019,1.0018,1.0035,1.016,1.0183,1.0194,1.009,1.0091,1.0093,1.0161,0,1.0202,1.0229,1.0194,1.0228,1.0235,1.0186,1.02,1.0187,1.0167,1.017,1.0148,1.0153,1.0115,1.0111,1.0124,1.0102,1.0136,1.0096,1.0099,1.01,1.0103,1.0205,1.0229,1.0295,1.0169,1.0171,1.0172,0,1.0294,1.0287,1.0322,1.0294,1.0296,1.031,1.0301,1.0305,1.0289,1.0273,1.0267,1.0234,1.0248,1.0206,1.0224,1.0198,1.0197,1.0186,1.0188,1.0185,1.0139,1.0204,1.0315,1.0324,1.0185,1.0184,1.0183,0,1.0381,1.0382,1.0402,1.0397,1.0366,1.0376,1.0364,1.0345,1.0343,1.0336,1.0334,1.0329,1.0326,1.0323,1.0289,1.0262,1.031,1.0266,1.0296,1.0297,1.0308,1.0307,1.0418,1.031,1.031,1.031,1.031,0,1.0468,1.0491,1.0441,1.0453,1.0476,1.0436,1.046,1.0443,1.0426,1.0433,1.0391,1.0399,1.0355,1.0358,1.0332,1.0349,1.0348,1.0335,1.0328,1.0338,1.0339,1.0336,1.033,1.0313,1.0312,1.0311,1.0311,0,1.057,1.0537,1.0556,1.0524,1.0517,1.0535,1.0508,1.0517,1.0494,1.0504,1.0504,1.0468,1.0469,1.0435,1.043,1.0412,1.044,1.0426,1.0446,1.044,1.0472,1.0469,1.0583,1.0595,1.0482,1.0483,1.0484,0,1.0626,1.0642,1.0612,1.0614,1.0603,1.0607,1.0604,1.0565,1.0564,1.0546,1.0557,1.0555,1.055,1.0554,1.0527,1.0522,1.0506,1.0546,1.0505,1.0514,1.0504,1.0503,1.0503,1.0554,1.0556,1.0557,1.0558,0,1.0729,1.0712,1.0711,1.0703,1.0701,1.0694,1.0684,1.0687,1.0644,1.0645,1.0645,1.0642,1.0635,1.0633,1.0623,1.0609,1.0576,1.0571,1.0578,1.0588,1.0598,1.0591,1.0467,1.0569,1.0568,1.0567,1.0566,1.0566,1.0809,1.082,1.0799,1.0799,1.0786,1.0777,1.0784,1.0761,1.0761,1.0752,1.0729,1.0732,1.0714,1.0696,1.0686,1.0687,1.0667,1.0677,1.0679,1.0682,1.0687,1.0599,1.0686,1.0685,1.0685,1.0685,1.0685,0,1.0907,1.0892,1.0891,1.0877,1.0877,1.0846,1.0832,1.0833,1.0837,1.0822,1.0818,1.0817,1.0814,1.0787,1.078,1.0787,1.0771,1.0786,1.0784,1.0782,1.0706,1.0701,1.0799,1.0799,1.0799,1.0799,1.0799,1.0799,1.0959,1.0975,1.0955,1.0965,1.0949,1.0951,1.0946,1.0937,1.0925,1.0925,1.0922,1.0904,1.0884,1.0876,1.0871,1.0863,1.0862,1.0881,1.0868,1.0798,1.0787,1.0777,1.0771,1.0882,1.0882,1.0943,1.0943,1.0944]},{"header":{"parameterUnit":"m.s-1","parameterCategory":1,"la1":30.2991,"la2":30.254,"lo1":-89.0895,"lo2":-89.0444,"dy":0.0017,"dx":0.0017,"nx":28,"ny":28,"refTime":"2025-06-18T03:00:00:Z","depth":0,"parameterNumber":3,"parameterNumberName":"V-component_of_WINDS"},"data":[0,0,0,0,0,0,0,0,0,0,0,0,0,0,0,0,0,0,0,0,0,0,0,0,0,0,0,0,0,0,0,0,0,0,0,0,0,0,0,0,0,0,0,0,0,0,0,0,0,0,0,0,0,0,0,0,0,0,5.007,5.0071,0,5.0152,5.0153,5.0154,5.0124,5.0122,5.012,5.0118,5.0197,5.0201,5.0204,0,0,0,0,0,0,0,0,0,0,0,0,0,4.988,4.9884,5.007,5.0071,5.0072,5.0152,5.0153,5.0154,5.0124,5.0122,5.0119,5.0117,5.0196,5.02,5.0205,0,0,0,0,0,0,0,0,0,0,0,0,0,4.9962,4.9885,5.0069,5.0067,5.0067,5.0151,5.0153,5.0154,5.0124,5.0122,5.0119,5.0116,5.0194,5.02,5.0205,5.0296,0,0,5.0223,5.0225,0,0,0,0,0,0,0,0,4.9958,4.9969,5.0066,5.0067,5.0068,5.0125,5.0115,5.0201,5.0125,5.0102,5.0118,5.0115,5.0175,5.0182,5.0203,5.03,5.0303,5.0223,5.0227,5.0229,5.0231,0,0,0,0,0,0,0,4.9952,4.9965,5.0102,5.0067,5.0068,5.0059,5.0067,5.0131,5.0153,5.0104,5.0102,5.0113,5.0175,5.0198,5.0205,5.0304,5.0223,5.0228,5.0232,5.0234,5.0475,5.0478,0,0,0,0,0,0,4.9947,4.9961,5.0099,5.0104,5.0005,5.0065,5.0074,5.0109,5.0152,5.0156,5.0115,5.0111,5.0189,5.0198,5.0207,5.0314,5.0229,5.0235,5.0238,5.0472,5.0476,5.0479,0,0,0,0,0,0,4.9943,4.9959,5.0096,5.0032,5.0049,5.0071,5.011,5.0112,5.0135,5.016,5.0163,5.0135,5.0188,5.0199,5.0274,5.0316,5.0237,5.0242,5.0469,5.0473,5.0477,5.0529,0,0,0,0,0,0,4.9938,4.9958,4.9994,5.0033,5.0052,5.0163,5.0113,5.0116,5.0146,5.0141,5.018,5.0184,5.0186,5.0265,5.0279,5.0323,5.0247,5.0465,5.0471,5.0476,5.0523,5.0534,5.0544,0,0,0,0,0,4.9931,5.0005,4.9997,5.0013,5.0099,5.0166,5.0176,5.0179,5.015,5.0185,5.02,5.0182,5.031,5.0273,5.0289,5.0334,5.0462,5.0469,5.0476,5.0519,5.0532,5.0544,0,0,0,0,0,0,4.9969,5.001,5.0001,5.0091,5.0125,5.016,5.0205,5.0194,5.0236,5.023,5.0231,5.0239,5.0315,5.0333,5.0291,5.0422,5.0381,5.0391,5.0408,5.0422,5.0432,5.0425,5.0252,0,0,0,0,0,4.9988,5.0041,5.0074,5.0149,5.0167,5.0183,5.0213,5.0212,5.0247,5.0261,5.0282,5.0315,5.0362,5.0393,5.0438,5.0526,5.0532,5.0565,5.0575,5.0583,5.0591,5.0636,5.065,5.0501,5.0501,5.0501,0,0,5.0028,5.0057,5.009,5.0158,5.0184,5.0236,5.0196,5.0253,5.0291,5.0269,5.034,5.0357,5.0393,5.0474,5.0511,5.0491,5.0634,5.0592,5.0598,5.0602,5.0644,5.0658,5.0671,5.0506,5.0505,5.0504,0,0,5.0126,5.0155,5.022,5.0247,5.0288,5.0298,5.0314,5.0351,5.0362,5.0434,5.0417,5.0461,5.0544,5.0569,5.0593,5.07,5.0683,5.0714,5.0767,5.0811,5.0823,5.0833,5.0868,5.0881,5.0723,5.0723,5.0723,0,5.0169,5.025,5.0254,5.0313,5.0342,5.0325,5.0389,5.0415,5.0468,5.0487,5.0465,5.0566,5.059,5.0675,5.0701,5.0722,5.0737,5.0709,5.0821,5.0831,5.0841,5.0874,5.0888,5.0726,5.0726,5.0725,5.0725,0,5.0299,5.0355,5.0402,5.0455,5.0489,5.055,5.0561,5.0595,5.0592,5.0603,5.0675,5.0703,5.0752,5.0772,5.0769,5.0857,5.0842,5.0821,5.0779,5.0858,5.089,5.0903,5.0731,5.073,5.0729,5.0728,0,0,5.0424,5.0478,5.0494,5.0517,5.0561,5.0603,5.0662,5.0711,5.0739,5.0776,5.0823,5.0893,5.0872,5.0899,5.0898,5.0937,5.1016,5.091,5.0911,5.0926,5.1111,5.1125,5.114,5.1007,5.1009,5.1011,5.1107,0,5.0523,5.0629,5.0634,5.0729,5.0778,5.0763,5.0814,5.0845,5.0857,5.0899,5.0912,5.096,5.0931,5.0947,5.0985,5.0999,5.1053,5.0992,5.1048,5.105,5.1037,5.1157,5.1173,5.1262,5.1119,5.1121,5.1123,0,5.0654,5.0695,5.0796,5.083,5.0851,5.0897,5.0941,5.0983,5.1017,5.1023,5.1053,5.1046,5.1103,5.1061,5.1139,5.1097,5.112,5.1131,5.1134,5.1137,5.1089,5.1161,5.129,5.1303,5.1143,5.1141,5.114,0,5.073,5.0812,5.0882,5.0902,5.0945,5.0977,5.0996,5.1027,5.1056,5.1094,5.1112,5.1156,5.118,5.1213,5.1217,5.1186,5.1294,5.1253,5.1298,5.1298,5.1319,5.1317,5.1452,5.1339,5.1339,5.1338,5.1338,0,5.084,5.0901,5.0916,5.0959,5.1026,5.103,5.1096,5.1112,5.114,5.1183,5.1173,5.1214,5.1218,5.1259,5.1263,5.1325,5.1336,5.1341,5.134,5.134,5.1339,5.1354,5.1346,5.1342,5.1341,5.134,5.134,0,5.0936,5.095,5.1024,5.1059,5.1069,5.1116,5.1145,5.1184,5.1195,5.125,5.1263,5.128,5.1328,5.1336,5.1392,5.1395,5.1468,5.1463,5.1457,5.1455,5.1499,5.1493,5.1645,5.1664,5.1541,5.1542,5.1543,0,5.1004,5.1051,5.109,5.1119,5.114,5.1188,5.1217,5.1222,5.1252,5.1293,5.1327,5.1374,5.1412,5.1489,5.1504,5.1546,5.154,5.1591,5.1546,5.1544,5.1538,5.1534,5.1537,5.1598,5.1599,5.1601,5.1601,0,5.1122,5.1126,5.1169,5.1215,5.125,5.1286,5.1319,5.1343,5.1352,5.1387,5.1436,5.1466,5.1523,5.1568,5.161,5.1627,5.1615,5.1616,5.1628,5.1627,5.162,5.1621,5.1477,5.1611,5.161,5.161,5.1609,5.1609,5.1204,5.1244,5.1277,5.1325,5.1351,5.1383,5.1421,5.1437,5.1479,5.1527,5.1527,5.158,5.161,5.1665,5.1685,5.1725,5.1709,5.1727,5.1731,5.1735,5.1738,5.1616,5.1733,5.1733,5.1733,5.1732,5.1732,0,5.1318,5.1339,5.1384,5.1431,5.1468,5.1456,5.1492,5.1523,5.157,5.1601,5.1638,5.1693,5.1737,5.1757,5.1799,5.1827,5.1823,5.1838,5.1835,5.1838,5.1751,5.1735,5.1841,5.1841,5.1841,5.1841,5.1841,5.1841,5.1382,5.1448,5.1456,5.1533,5.1553,5.1606,5.1628,5.1655,5.1679,5.1742,5.1779,5.1792,5.1817,5.1861,5.19,5.1904,5.1919,5.1936,5.1938,5.1856,5.1845,5.1834,5.1819,5.194,5.194,5.2021,5.2021,5.2022]}]]